This is the latest recevied weather packets stored in our database for station/object K4LEN. If no packets are shown the sender has not sent any weather packets the latest 1 day(s).
| Time | Temp. | Humidity | Pressure | Rain* | Wind** | Luminosity | Snow |
|---|---|---|---|---|---|---|---|
| 1778008201 | 19.44° C | 74% | 1014.1 hPa | 0 mm | 3.13 m/s, 356° | 208 W/m² | - |
| 1778007598 | 18.89° C | 76% | 1014 hPa | 0 mm | 2.24 m/s, 353° | 203 W/m² | - |
| 1778006997 | 18.89° C | 76% | 1014.9 hPa | 0 mm | 3.13 m/s, 355° | 118 W/m² | - |
| 1778006397 | 18.89° C | 75% | 1015.3 hPa | 0 mm | 2.24 m/s, 2° | 95 W/m² | - |
| 1778005796 | 18.89° C | 76% | 1015.1 hPa | 0 mm | 2.68 m/s, 11° | 98 W/m² | - |
| 1778005195 | 18.89° C | 73% | 1015.3 hPa | 0 mm | 2.68 m/s, 351° | 87 W/m² | - |
| 1778004590 | 19.44° C | 70% | 1015.4 hPa | 0 mm | 3.13 m/s, 19° | 82 W/m² | - |
| 1778003989 | 19.44° C | 69% | 1015.4 hPa | 0 mm | 4.02 m/s, 15° | 82 W/m² | - |
| 1778003388 | 19.44° C | 69% | 1015.2 hPa | 0 mm | 3.58 m/s, 9° | 108 W/m² | - |
| 1778002787 | 20° C | 68% | 1016 hPa | 0 mm | 3.58 m/s, 6° | 81 W/m² | - |
| 1778002186 | 20.56° C | 64% | 1016.2 hPa | 0 mm | 1.79 m/s, 4° | 133 W/m² | - |
| 1778001584 | 20° C | 66% | 1016.2 hPa | 0 mm | 2.24 m/s, 299° | 131 W/m² | - |
| 1778000983 | 20.56° C | 64% | 1016.3 hPa | 0 mm | 3.58 m/s, 15° | 99 W/m² | - |
| 1778000381 | 20.56° C | 66% | 1016.7 hPa | 0 mm | 2.68 m/s, 357° | 161 W/m² | - |
| 1777999779 | 20.56° C | 67% | 1016.8 hPa | 0 mm | 0.45 m/s, 271° | 181 W/m² | - |
| 1777999174 | 20.56° C | 67% | 1017 hPa | 0 mm | 1.34 m/s, 240° | 263 W/m² | - |
| 1777998571 | 20.56° C | 68% | 1017.1 hPa | 0 mm | 1.79 m/s, 335° | 285 W/m² | - |
| 1777997970 | 20.56° C | 67% | 1017.2 hPa | 0 mm | 1.79 m/s, 279° | 271 W/m² | - |
| 1777997364 | 20.56° C | 69% | 1017.4 hPa | 0 mm | 0.45 m/s, 265° | 280 W/m² | - |
| 1777996764 | 20.56° C | 67% | 1017.4 hPa | 0 mm | 1.79 m/s, 341° | 279 W/m² | - |
| 1777996163 | 21.11° C | 67% | 1017.1 hPa | 0 mm | 1.34 m/s, 5° | 368 W/m² | - |
| 1777995561 | 20.56° C | 68% | 1017 hPa | 0 mm | 0.45 m/s, 170° | 494 W/m² | - |
| 1777994956 | 20° C | 69% | 1016.9 hPa | 0 mm | 1.34 m/s, 278° | 559 W/m² | - |
| 1777994353 | 20° C | 70% | 1017 hPa | 0 mm | 2.24 m/s, 350° | 578 W/m² | - |
| 1777993753 | 20° C | 69% | 1016.8 hPa | 0 mm | 2.24 m/s, 349° | 530 W/m² | - |
* Rain latest hour (hover to see other rain measurements)
** Current wind speed in m/s (hover to see current wind gust speed)